Dewpoint
73 73 73 74 74 75 74 73 73 74 75 74 74 73 74 73 74 75 75 74 74 74 74 74 74 74 72 71 72 72 71 71 68 69 71 72 72 73 72 72 74 73 73
72 73 73 74 73 73 73 73 73 73 74 75 75 74 74 74 74 74 73 71 73 74 73 73 73 70 74 74 72 73 73 73 71 70 71 71 71 73 74 75 73 67 70
71 71 72 72 73 72 73 73 73 74 74 73 74 73 73 73 73 73 73 73 73 73 73 74 73 74 74 73 74 73 72 73 73 71 70 71 71 71 71 74 74 73 72
70 70 71 72 72 72 73 73 73 74 74 73 74 73 73 73 73 73 74 73 74 73 73 73 73 72 73 74 72 73 71 72 73 72 71 70 70 72 71 69 68 71 72
76 73 73 74 74 74 74 75 73 73 73 74 73 74 73 72 70 73 73 73 73 72 73 74 73 73 71 72 73 73 72 71 70 70 71 71 70 70 70 71 71 71 72
75 76 76 77 76 75 75 75 75 74 74 74 73 73 73 70 66 66 72 73 73 73 73 73 74 72 71 68 68 68 71 73 71 71 70 67 69 70 71 72 71 70 69
75 75 74 77 76 75 74 75 75 74 74 74 73 73 73 72 65 65 68 71 73 73 73 74 72 67 71 74 69 67 67 66 67 70 69 70 70 71 73 71 71 71 70
74 74 76 76 75 75 74 74 75 75 74 74 74 74 73 72 66 64 66 72 72 73 73 74 74 73 73 73 73 74 74 73 71 69 69 70 72 73 74 73 72 71 70
72 69 68 68 66 66 70 73 74 75 74 74 74 74 73 72 65 62 66 71 71 73 73 74 74 74 70 66 72 71 73 74 65 64 64 63 63 62 63 66 65 65 63
71 72 68 67 64 64 64 64 71 74 74 74 73 74 71 73 65 62 64 70 70 70 73 73 67 70 66 63 71 73 72 72 72 69 67 63 63 63 62 66 67 64 64
69 71 72 71 63 63 60 61 63 73 74 74 74 74 74 73 72 61 60 70 69 69 69 70 71 62 60 60 63 73 72 72 72 72 70 68 67 67 65 67 67 66 63
68 68 69 71 71 66 63 64 67 73 73 73 74 74 74 74 67 61 59 61 67 70 70 70 73 59 57 57 61 64 63 65 73 72 71 70 68 66 66 67 66 67 66
67 67 67 69 70 72 71 71 71 73 73 73 73 73 72 74 75 62 59 59 61 70 73 67 61 56 57 58 58 60 61 68 69 69 69 67 68 67 67 67 67 67 67
65 65 65 65 68 71 74 73 73 72 73 73 72 72 73 74 74 70 67 63 61 64 61 62 62 62 63 64 61 60 65 67 67 67 68 67 66 66 66 65 64 65 64
63 62 63 62 65 68 73 72 71 71 62 62 67 71 71 70 71 68 68 70 69 67 68 66 65 66 66 66 65 65 65 65 66 66 67 65 65 64 64 65 65 65 64
60 59 59 58 59 73 70 70 55 57 58 55 56 58 63 59 55 54 51 53 55 56 68 68 68 67 66 67 66 65 65 65 65 66 67 66 65 64 64 66 65 63 62
62 61 60 57 58 66 68 67 65 58 54 53 54 55 56 54 49 49 50 48 50 56 69 67 67 67 66 67 66 65 64 64 68 66 66 66 66 65 62 64 64 62 61
61 56 59 59 58 64 69 69 67 65 60 60 50 57 54 47 50 50 46 54 61 62 68 69 67 67 66 66 65 64 64 65 64 64 65 65 65 65 64 63 61 62 62
60 59 58 58 58 56 66 69 69 66 64 63 58 53 49 44 46 45 48 67 67 67 68 67 67 64 64 65 66 66 65 63 62 63 65 65 64 64 64 62 62 56 57
58 58 57 58 58 59 63 68 68 66 62 64 63 64 57 54 57 58 62 68 67 66 67 66 65 64 64 65 66 66 67 65 65 65 65 66 64 64 61 61 60 59 59
57 56 57 56 56 56 56 65 65 66 63 64 65 63 55 62 63 62 64 67 67 66 66 65 64 65 65 65 66 64 63 63 65 65 64 65 66 62 62 61 58 57 57
57 56 57 55 55 54 54 55 63 67 66 66 63 60 50 63 64 64 64 66 66 66 64 65 63 62 65 64 65 63 63 63 64 65 64 64 63 62 60 58 58 57 56
58 56 56 56 56 54 54 58 61 64 66 65 65 58 58 64 64 64 64 65 66 65 63 63 63 63 65 65 65 65 63 62 63 65 63 63 62 61 58 56 55 55 55
55 56 56 54 54 55 58 60 62 60 61 64 66 63 62 65 65 65 64 64 64 63 63 63 63 61 62 64 63 63 64 64 65 63 64 63 61 57 56 56 55 53 53
54 53 55 54 54 54 54 55 57 59 61 63 64 64 64 65 64 64 64 63 62 62 63 63 63 62 62 62 62 60 45 44 61 54 65 64 61 62 59 56 55 53 52
55 52 53 55 54 59 61 60 58 61 62 63 63 66 66 65 65 64 64 64 62 62 62 62 61 62 61 57 54 44 37 44 53 45 62 62 60 60 57 57 58 57 58
Lifted_Index
-8 -8 -9 -9 -8 -8 -7 -7 -6 -6 -6 -6 -5 -5 -5 -5 -5 -5 -5 -4 -5 -5 -5 -5 -5 -5 -4 -4 -4 -4 -4 -4 -3 -3 -3 -4 -4 -4 -4 -4 -4 -4 -4
-9 -9 -9 -9 -8 -8 -7 -7 -6 -6 -6 -6 -5 -5 -5 -5 -5 -5 -4 -4 -5 -5 -5 -5 -5 -5 -5 -4 -4 -4 -4 -4 -4 -4 -4 -4 -3 -4 -4 -5 -5 -4 -4
-9 -9 -9 -9 -8 -8 -8 -7 -7 -7 -7 -6 -6 -5 -5 -5 -5 -5 -5 -5 -5 -5 -5 -5 -5 -5 -5 -5 -5 -5 -5 -5 -5 -4 -4 -4 -3 -3 -4 -4 -4 -4 -4
-9 -9 -9 -9 -9 -8 -8 -8 -7 -7 -7 -6 -6 -6 -5 -5 -5 -5 -5 -5 -5 -5 -5 -5 -5 -5 -5 -5 -5 -5 -5 -5 -4 -4 -4 -4 -3 -3 -3 -4 -4 -4 -4
-10 -10 -10 -10 -9 -9 -9 -8 -8 -7 -7 -7 -6 -6 -6 -5 -5 -5 -5 -5 -5 -5 -5 -5 -5 -5 -5 -5 -4 -4 -4 -4 -4 -4 -4 -3 -3 -3 -3 -3 -3 -3 -4
-10 -10 -10 -10 -10 -9 -9 -9 -9 -8 -8 -7 -7 -6 -6 -5 -5 -4 -5 -5 -5 -5 -5 -5 -5 -5 -5 -4 -4 -4 -3 -3 -3 -3 -3 -3 -3 -4 -4 -4 -4 -4 -4
-10 -10 -10 -10 -10 -9 -9 -9 -9 -9 -8 -8 -7 -7 -6 -5 -4 -4 -4 -5 -5 -5 -5 -5 -5 -5 -5 -5 -4 -4 -3 -3 -3 -3 -3 -3 -4 -4 -5 -5 -4 -4 -4
-9 -9 -9 -9 -9 -9 -8 -9 -9 -9 -9 -8 -8 -7 -7 -6 -5 -4 -4 -4 -5 -5 -6 -6 -5 -5 -5 -5 -4 -4 -4 -3 -3 -3 -3 -3 -4 -4 -4 -4 -4 -3 -3
-8 -8 -8 -7 -6 -6 -6 -7 -8 -9 -9 -9 -9 -8 -7 -6 -6 -5 -4 -4 -5 -5 -6 -6 -6 -6 -5 -5 -4 -4 -4 -4 -4 -4 -4 -4 -4 -4 -3 -2 -2 -1 -0
-7 -7 -7 -6 -4 -3 -3 -4 -6 -8 -9 -9 -9 -8 -8 -7 -6 -6 -5 -5 -5 -5 -5 -5 -5 -5 -5 -5 -4 -4 -4 -4 -4 -4 -4 -3 -3 -2 -1 -0 0 1 1
-6 -6 -7 -6 -4 -2 -1 -1 -4 -7 -8 -9 -9 -9 -8 -8 -7 -7 -6 -5 -5 -5 -5 -5 -5 -5 -5 -4 -4 -4 -4 -4 -4 -4 -4 -3 -2 -1 0 1 2 2 2
-5 -5 -6 -6 -6 -5 -2 -2 -4 -6 -8 -8 -8 -8 -9 -8 -8 -7 -7 -6 -6 -6 -6 -6 -6 -5 -5 -4 -4 -4 -4 -4 -4 -4 -3 -3 -2 -0 1 2 2 3 3
-4 -4 -5 -6 -7 -7 -6 -5 -5 -7 -8 -8 -8 -8 -8 -8 -8 -8 -7 -7 -6 -6 -6 -6 -6 -6 -5 -4 -4 -3 -3 -3 -3 -3 -3 -2 -1 0 1 2 3 3 3
-3 -3 -4 -5 -6 -7 -7 -7 -7 -7 -7 -7 -7 -7 -7 -8 -8 -8 -7 -6 -6 -6 -6 -6 -5 -5 -5 -4 -3 -3 -3 -3 -3 -2 -2 -1 0 1 2 2 2 3 3
-2 -2 -3 -3 -5 -6 -7 -7 -7 -7 -6 -6 -5 -6 -6 -6 -6 -6 -6 -6 -6 -5 -5 -5 -5 -5 -4 -4 -3 -3 -3 -3 -2 -1 -1 -0 1 1 2 2 2 3 3
-1 -1 -2 -2 -3 -5 -6 -6 -5 -5 -5 -4 -3 -3 -3 -3 -3 -3 -4 -4 -5 -5 -4 -4 -4 -4 -4 -3 -3 -3 -2 -1 -1 -0 -0 0 1 1 1 2 2 3 3
-0 -1 -1 -1 -2 -4 -5 -5 -4 -4 -4 -3 -2 -0 0 0 -0 -0 -1 -2 -3 -4 -5 -4 -4 -4 -3 -3 -3 -2 -1 -0 -0 0 0 0 1 1 1 2 2 3 3
0 -0 -1 -1 -2 -3 -5 -6 -5 -4 -3 -2 -1 1 1 1 1 0 -0 -1 -3 -4 -5 -5 -4 -3 -3 -2 -2 -2 -1 -0 0 0 0 0 1 1 1 2 2 3 3
1 0 -0 -1 -2 -3 -5 -6 -6 -4 -3 -2 -1 0 0 0 0 -0 -1 -2 -3 -4 -5 -5 -4 -3 -2 -2 -2 -2 -1 -0 0 0 0 0 1 1 2 2 3 3 3
1 0 -0 -1 -2 -2 -4 -6 -6 -5 -3 -2 -1 -1 -1 -1 -1 -1 -2 -3 -4 -4 -5 -4 -3 -2 -2 -2 -2 -2 -1 -1 -0 -1 -0 -0 0 1 2 2 3 3 4
0 0 -0 -1 -1 -2 -3 -5 -6 -5 -4 -3 -2 -2 -1 -1 -2 -2 -3 -4 -5 -5 -5 -4 -3 -2 -2 -2 -2 -2 -1 -1 -1 -1 -1 -0 0 1 2 3 4 4 4
0 -0 -0 -1 -1 -1 -2 -4 -5 -5 -4 -4 -3 -2 -1 -2 -2 -3 -4 -4 -5 -5 -4 -3 -2 -2 -2 -2 -2 -2 -1 -1 -1 -1 -0 -0 0 1 2 3 4 5 5
0 0 -0 -1 -1 -1 -2 -3 -4 -5 -4 -4 -3 -2 -2 -2 -3 -3 -4 -4 -4 -4 -3 -3 -2 -1 -1 -2 -2 -2 -1 -1 -1 -1 -0 -0 1 2 2 3 4 4 4
0 0 0 -0 -1 -1 -2 -3 -4 -4 -4 -4 -3 -3 -3 -3 -3 -4 -4 -4 -4 -3 -2 -2 -2 -1 -1 -1 -2 -2 -1 -1 -1 -1 -1 -0 1 2 3 3 4 4 4
0 1 0 -0 -1 -1 -2 -3 -3 -3 -4 -4 -3 -3 -3 -3 -4 -4 -4 -4 -3 -3 -2 -2 -2 -1 -1 -1 -1 -1 -1 -1 -1 -1 -0 0 1 2 3 3 3 3 3
0 1 1 -0 -1 -1 -2 -3 -3 -3 -4 -4 -3 -3 -3 -4 -4 -5 -4 -4 -3 -2 -2 -2 -2 -1 -1 -1 -1 -1 -1 -1 -1 -0 0 1 2 2 3 3 3 3 3